Voltar ao catálogo

GEESAT 6-04

AtivoComunicaçõesLEO
NORAD 65716·PAYLOAD·🇨🇳 China

Lançado Sep 24, 2025 de Yellow Sea Launch Area

Loading…

Próximas Passagens (próximas 24 horas)

TLE

AtualizadoSource: Space-Track

Época: Sep 14, 2026, 22:49 UTC

1 65716U 25214E   26257.95095689  .00001282  00000-0  18108-3 0  9996
2 65716  49.9842 252.2272 0009320 213.0444 146.9913 14.83597999 52832

Acompanhe GEESAT 6-04 em tempo real com AllMySat

Download on the App Store